Vertical_Velocity
-4 -5 -4 -4 -4 -3 -2 -1 -0 -5 -1 -4 1 1 3 -1 24 -3 -2 2 2 -8 -2 -1 -5 -5 6 9 12 15 3 8 55 -1 8 5 1 -0 2 4 3 3 7 1
-3 -6 -5 -3 -2 -0 -1 -2 0 0 -2 -5 -9 -1 -11 -3 15 18 11 -7 -4 -0 -0 12 2 -2 0 3 -2 3 22 15 34 10 -1 3 0 -6 -1 1 -2 3 0 1
-2 -3 -2 -2 -3 -4 -4 -3 0 -0 -3 -4 0 -7 -7 -2 3 29 22 -1 -1 -6 4 57 -1 -6 2 4 25 12 -4 -7 -8 46 -11 -8 1 1 4 2 1 3 4 -0
-2 -1 -2 -4 -3 -4 -2 -6 0 1 -2 -11 -5 -4 -3 5 -8 16 28 34 13 7 33 3 9 0 1 11 14 -2 8 6 33 22 27 12 -2 -0 -1 1 3 3 1 2
-4 -2 -3 -4 -4 -4 -0 -5 -2 2 0 -3 -4 -2 -0 2 -1 12 -5 -5 11 16 2 -4 26 12 0 3 -10 24 28 7 4 32 35 15 8 1 4 2 -0 -1 3 4
-4 0 -0 2 -1 -3 -2 -3 -6 -2 4 -2 -3 -1 -0 4 1 -0 1 0 1 1 6 10 2 -8 -12 21 6 11 -13 -5 25 7 5 19 26 10 2 -2 0 -0 -0 3
-2 2 2 1 2 -0 -2 -1 -2 -7 -6 -2 -2 -3 2 1 3 1 -1 0 -0 -1 8 -0 -1 4 -0 -2 -5 -15 -0 2 -11 -13 1 -3 -3 16 25 11 5 3 1 1
1 2 -2 -3 -2 0 -1 -4 -1 -3 -6 -4 -1 3 -5 1 3 6 6 7 5 6 0 5 4 -4 -6 -3 -11 -9 -9 -2 -6 -1 4 0 -0 -10 -1 12 16 1 1 6
-4 -2 -5 -0 -3 -3 -1 -2 -4 -2 -2 -3 -4 -4 -2 -5 -3 -3 -2 -0 2 3 6 2 1 -5 7 5 1 3 7 0 -7 -1 -1 2 -1 9 -6 1 3 5 5 8
0 3 1 -1 -2 -3 -2 0 -2 -4 -1 -1 -1 -1 -2 -1 -1 2 2 1 -2 1 1 3 -0 1 5 5 1 -3 -4 -3 -2 1 1 -0 4 2 2 -3 -7 1 -1 -2
-2 -4 -0 -1 0 0 -1 -1 1 -1 -2 -2 -0 -2 -1 -1 -1 0 -1 1 1 -5 -5 -2 1 6 7 5 3 2 -6 -6 -2 -6 -2 -2 2 -3 -4 -2 1 2 -4 -5
4 -7 2 1 -2 2 -1 0 -1 -0 0 0 -1 4 -0 -2 -2 2 0 -4 -3 1 -1 -3 -4 -3 -5 0 0 1 0 1 3 1 2 2 3 3 5 5 -3 0 -1 2
4 1 -0 3 -2 -1 -0 -1 -1 -2 1 2 0 3 0 0 1 -0 0 3 3 -2 -3 -4 -5 -6 -10 -5 -3 -4 -7 -3 1 0 -2 1 -1 -3 -4 -4 -2 3 2 2
4 9 -5 2 -0 2 -2 -3 0 -1 1 -2 2 -2 3 3 -0 1 -1 0 3 3 1 0 6 3 3 6 2 7 10 4 2 -2 3 4 1 -2 -4 -2 -2 0 -3 -2
-0 4 -2 -1 -4 -2 5 1 -3 1 0 -2 2 -7 2 6 -1 1 2 1 -1 -2 1 5 5 2 3 1 1 0 0 -9 -15 -5 6 -0 0 2 3 -0 0 -3 -6 -5
1 -1 1 9 -2 -5 -2 1 -2 -2 -2 1 -2 1 1 -5 -1 0 0 -1 0 1 1 -3 -3 -3 -3 -2 2 3 5 8 12 8 2 -0 -5 -7 -2 3 2 0 -0 0
-3 -2 -5 7 12 -4 2 6 -4 -5 8 -1 -3 -1 -1 3 -1 -0 1 -1 -2 -2 -2 -3 -1 -1 0 1 2 -1 2 -2 -10 -4 -3 -2 3 9 6 -0 -3 -4 -0 -0
1 -1 -5 1 3 -1 5 6 6 2 -1 -1 0 0 -2 -3 -1 5 0 -6 -1 -2 -2 -2 -2 -4 -4 -3 -1 -1 1 3 2 5 8 8 6 1 -5 -6 -3 -0 -0 -2
5 3 -3 -8 -4 -0 10 2 4 -0 5 2 -4 -1 1 -3 -8 5 -1 -3 -1 -3 -4 -2 -2 -1 -2 -4 -4 -2 -2 -1 2 7 5 -1 -5 7 9 9 3 -4 -1 0
2 4 3 -2 -6 -7 9 2 4 -1 5 -0 -1 2 1 0 -6 -3 5 3 3 1 2 1 -4 -5 -2 -4 -3 -2 0 -3 -0 2 1 -2 -2 4 3 -6 -2 6 5 9
-1 1 1 -1 -6 -3 5 4 1 -0 -8 1 1 1 -0 -0 -0 -2 -2 -5 -4 -5 -4 -4 -6 -5 -6 -4 -4 -4 -4 -3 -2 -1 -1 -2 -3 1 -2 4 -3 -2 -5 -10
3 0 5 4 -2 -4 4 -1 -0 -4 -2 -1 -0 -2 -2 -2 -2 -3 -5 -5 -6 -5 -6 -7 -3 -3 -5 -6 -5 -5 -6 -4 -5 -3 -2 -1 -2 -2 -1 -7 1 -4 -1 -3
-5 6 -2 5 -1 0 -4 -2 -1 -1 2 -3 -0 0 -2 -2 -1 -2 -3 -5 -6 -6 -6 -6 -5 -2 -6 -6 -4 -2 -3 -2 -1 -3 -1 -2 -3 -3 -4 -2 -2 0 -4 -5
4 0 -1 0 7 -1 -2 -1 -1 -2 -1 -1 -0 -1 -1 -1 -3 -2 -2 -4 -3 -3 -1 -3 -3 -6 -4 -5 -4 -9 -6 -5 -5 -3 -3 -2 -2 -0 -2 -2 -3 -3 -0 -0
4 3 6 -2 4 0 3 2 1 0 0 -1 -2 -3 -3 -1 -4 -2 -2 -2 -2 -1 -1 -2 -1 -0 -0 0 -2 -6 -4 -4 -4 -4 -4 -3 -3 -2 -0 -2 -3 -1 2 -5
8 3 3 -3 0 -1 2 1 0 0 -1 -1 -1 1 -0 0 1 -1 -1 -2 -1 -1 -2 1 -1 -3 -4 -1 -1 -4 -5 -4 -3 -2 -2 -3 -3 -1 -1 -2 4 2 -2 -1
Height
5763 5758 5751 5746 5740 5736 5732 5725 5717 5710 5705 5701 5702 5696 5690 5680 5672 5656 5647 5647 5650 5653 5656 5662 5668 5672 5675 5686 5703 5718 5729 5733 5732 5742 5751 5759 5766 5771 5776 5781 5786 5791 5795 5797
5763 5757 5752 5746 5741 5737 5733 5727 5718 5713 5705 5700 5696 5693 5690 5678 5671 5660 5649 5647 5649 5656 5659 5662 5666 5670 5675 5688 5703 5715 5725 5725 5728 5727 5741 5750 5756 5763 5767 5772 5777 5782 5786 5790
5762 5757 5752 5746 5742 5737 5733 5728 5719 5713 5707 5705 5701 5694 5692 5689 5678 5670 5661 5658 5657 5660 5662 5663 5667 5671 5678 5691 5698 5707 5714 5724 5729 5725 5731 5741 5748 5755 5760 5763 5768 5773 5777 5780
5761 5756 5751 5747 5742 5738 5734 5729 5721 5715 5710 5706 5703 5701 5697 5697 5690 5684 5678 5675 5673 5673 5674 5675 5675 5682 5686 5693 5700 5705 5714 5721 5721 5723 5725 5730 5738 5746 5751 5755 5759 5762 5766 5770
5761 5755 5752 5747 5743 5739 5735 5731 5723 5717 5711 5708 5706 5705 5702 5700 5698 5695 5689 5688 5685 5682 5681 5680 5682 5686 5691 5700 5701 5701 5706 5714 5713 5716 5720 5726 5731 5736 5741 5746 5750 5754 5757 5760
5759 5755 5751 5748 5743 5739 5735 5731 5727 5720 5715 5711 5708 5708 5706 5704 5702 5698 5695 5692 5690 5687 5686 5683 5687 5691 5697 5699 5696 5700 5709 5709 5710 5714 5715 5719 5724 5727 5731 5735 5740 5744 5747 5750
5757 5754 5750 5747 5744 5739 5735 5732 5729 5725 5719 5714 5710 5710 5706 5705 5704 5701 5699 5698 5695 5692 5688 5690 5693 5695 5698 5700 5699 5703 5706 5708 5709 5710 5711 5711 5715 5717 5721 5725 5729 5732 5735 5738
5757 5753 5750 5746 5743 5740 5736 5733 5729 5725 5721 5718 5715 5714 5711 5707 5704 5703 5701 5699 5699 5697 5694 5692 5694 5697 5700 5701 5703 5703 5706 5705 5708 5707 5707 5709 5709 5711 5713 5714 5717 5719 5722 5723
5754 5751 5747 5744 5741 5739 5735 5733 5730 5725 5723 5720 5718 5717 5713 5710 5708 5706 5703 5702 5700 5699 5698 5697 5695 5697 5697 5698 5698 5701 5701 5700 5702 5704 5705 5704 5704 5703 5706 5708 5706 5704 5706 5706
5751 5749 5745 5743 5740 5736 5733 5731 5729 5726 5722 5720 5717 5714 5714 5712 5711 5708 5707 5705 5704 5703 5702 5700 5700 5696 5694 5694 5695 5696 5697 5698 5698 5698 5697 5696 5695 5695 5695 5698 5697 5696 5696 5696
5746 5745 5743 5739 5736 5733 5731 5727 5725 5724 5721 5718 5716 5714 5711 5709 5708 5707 5705 5705 5704 5703 5702 5701 5701 5699 5700 5697 5694 5692 5694 5692 5690 5691 5690 5689 5690 5689 5688 5686 5687 5686 5686 5685
5742 5739 5737 5734 5731 5728 5726 5723 5721 5719 5719 5714 5713 5713 5708 5706 5704 5702 5702 5701 5699 5699 5698 5698 5698 5697 5696 5693 5691 5689 5689 5684 5684 5684 5682 5681 5681 5679 5676 5675 5676 5676 5676 5675
5734 5731 5730 5728 5725 5722 5720 5719 5716 5714 5712 5711 5707 5708 5704 5701 5699 5697 5695 5695 5695 5694 5693 5691 5689 5687 5685 5684 5684 5683 5679 5677 5676 5674 5672 5671 5670 5668 5667 5666 5666 5664 5662 5661
5724 5724 5720 5721 5718 5717 5716 5714 5712 5709 5708 5706 5703 5699 5700 5698 5694 5693 5689 5687 5686 5685 5685 5684 5682 5679 5675 5670 5667 5666 5665 5665 5663 5660 5659 5657 5656 5655 5654 5653 5651 5650 5649 5649
5715 5715 5711 5710 5709 5706 5705 5706 5704 5703 5702 5698 5698 5694 5692 5692 5688 5686 5683 5680 5677 5674 5671 5669 5666 5664 5663 5661 5658 5655 5651 5649 5645 5642 5641 5642 5641 5640 5638 5636 5635 5634 5633 5632
5708 5706 5704 5703 5699 5697 5696 5697 5696 5695 5693 5690 5688 5686 5684 5681 5679 5677 5675 5672 5669 5665 5660 5656 5652 5649 5644 5640 5637 5633 5631 5628 5624 5623 5622 5621 5620 5619 5618 5616 5615 5614 5613 5613
5700 5697 5694 5694 5691 5688 5689 5688 5686 5685 5684 5682 5680 5678 5675 5673 5670 5667 5664 5662 5658 5655 5651 5647 5642 5637 5632 5627 5622 5618 5613 5609 5606 5603 5599 5597 5596 5595 5594 5594 5592 5591 5590 5590
5691 5688 5685 5683 5681 5679 5679 5678 5676 5675 5674 5672 5671 5669 5666 5663 5660 5657 5654 5649 5646 5642 5638 5634 5630 5625 5620 5615 5608 5601 5594 5587 5582 5578 5575 5572 5570 5567 5566 5566 5565 5565 5566 5566
5683 5680 5676 5673 5671 5671 5670 5669 5668 5665 5665 5662 5660 5657 5654 5651 5647 5645 5641 5636 5632 5627 5623 5619 5614 5610 5605 5600 5594 5587 5581 5575 5567 5558 5549 5542 5540 5539 5539 5538 5537 5536 5536 5536
5675 5671 5667 5664 5661 5660 5661 5660 5658 5655 5655 5651 5647 5645 5641 5637 5633 5631 5626 5622 5617 5612 5607 5602 5597 5591 5585 5579 5573 5567 5559 5552 5545 5538 5531 5523 5516 5507 5501 5500 5500 5498 5500 5505
5666 5663 5658 5655 5652 5653 5652 5651 5648 5646 5645 5638 5634 5630 5626 5622 5617 5613 5608 5603 5599 5593 5588 5582 5575 5569 5562 5555 5548 5541 5535 5528 5520 5513 5504 5497 5490 5484 5477 5472 5466 5463 5461 5463
5659 5654 5652 5648 5645 5644 5643 5640 5637 5633 5629 5625 5620 5616 5611 5606 5601 5595 5589 5584 5578 5571 5565 5558 5551 5542 5535 5528 5521 5513 5505 5498 5491 5484 5475 5468 5460 5454 5449 5445 5441 5436 5432 5431
5651 5648 5644 5641 5637 5633 5630 5626 5623 5618 5614 5609 5605 5600 5595 5589 5583 5577 5570 5562 5555 5547 5540 5532 5524 5515 5505 5498 5489 5482 5473 5465 5457 5450 5444 5437 5432 5426 5421 5418 5416 5413 5410 5408
5641 5636 5632 5628 5626 5621 5617 5612 5608 5603 5599 5594 5588 5583 5577 5570 5564 5556 5549 5541 5533 5523 5514 5504 5495 5485 5476 5466 5456 5446 5440 5433 5427 5421 5416 5411 5408 5404 5401 5398 5396 5395 5394 5392
5630 5625 5621 5615 5612 5607 5603 5598 5593 5588 5583 5577 5571 5565 5559 5552 5543 5535 5526 5516 5508 5498 5488 5477 5467 5457 5446 5437 5428 5419 5413 5409 5405 5401 5398 5395 5392 5389 5387 5385 5382 5380 5379 5375
5616 5611 5606 5601 5597 5593 5589 5584 5579 5573 5567 5561 5554 5547 5539 5531 5521 5511 5501 5491 5482 5472 5461 5450 5440 5430 5421 5415 5409 5403 5399 5396 5393 5390 5386 5382 5379 5376 5374 5372 5372 5368 5365 5361